{"data":{"norad_id":59374,"epoch":"2026-09-21T18:38:33.719424Z","epoch_age_seconds":51931,"freshness":"FRESH","line1":"1 59374U 24062A   26264.77677916 -.00000291  00000+0  25083-5 0  9997","line2":"2 59374  53.1605  63.4212 0001065  82.7698 277.3426 15.34392801139707","mean_motion":15.34392801,"eccentricity":0.0001065,"inclination_deg":53.1605,"raan_deg":63.4212,"arg_perigee_deg":82.7698,"mean_anomaly_deg":277.3426,"bstar":2.5083e-6,"rev_number":13970,"period_min":93.848198392323,"perigee_km":461.99608547152,"apogee_km":463.45318900025,"semimajor_km":6840.8616372359,"source":"CELESTRAK","updated_at":"2026-09-22T09:00:48.907806Z"}}